| time (UTC) | temp F | wind direction | speed knots | gust knots | rain 1hr in | rain 24hr in | rain mn in | humidity % | barometer mb |
| 20260502224514 | 74 | 360 | 5.2 | 11.3 | 0.00 | 0.00 | 0.00 | 16 | 1006.8 |
| 20260502224015 | 74 | 360 | 3.5 | 7.8 | 0.00 | 0.00 | 0.00 | 16 | 1006.8 |
| 20260502223512 | 75 | 360 | 3.5 | 7.8 | 0.00 | 0.00 | 0.00 | 16 | 1006.8 |
| 20260502223012 | 75 | 360 | 2.6 | 8.7 | 0.00 | 0.00 | 0.00 | 15 | 1006.9 |
| 20260502222513 | 76 | 360 | 2.6 | 7.8 | 0.00 | 0.00 | 0.00 | 15 | 1007.1 |
| 20260502222012 | 75 | 360 | 0.9 | 7.8 | 0.00 | 0.00 | 0.00 | 15 | 1007.1 |
| 20260502221510 | 75 | 360 | 3.5 | 7.8 | 0.00 | 0.00 | 0.00 | 15 | 1007.2 |
| 20260502221009 | 76 | 360 | 2.6 | 7.8 | 0.00 | 0.00 | 0.00 | 15 | 1007.3 |
| 20260502220508 | 75 | 360 | 2.6 | 7.0 | 0.00 | 0.00 | 0.00 | 15 | 1007.3 |
| 20260502220018 | 74 | 360 | 0.0 | 5.2 | 0.00 | 0.00 | 0.00 | 16 | 1007.4 |
| 20260502215510 | 74 | 360 | 1.7 | 9.6 | 0.00 | 0.00 | 0.00 | 16 | 1007.5 |
| 20260502215006 | 74 | 360 | 5.2 | 9.6 | 0.00 | 0.00 | 0.00 | 16 | 1007.5 |
| 20260502214507 | 74 | 360 | 3.5 | 10.4 | 0.00 | 0.00 | 0.00 | 16 | 1007.7 |
| 20260502214006 | 74 | 360 | 6.1 | 12.2 | 0.00 | 0.00 | 0.00 | 16 | 1007.8 |
| 20260502213505 | 75 | 360 | 7.0 | 13.9 | 0.00 | 0.00 | 0.00 | 16 | 1007.8 |
| 20260502213015 | 75 | 360 | 3.5 | 13.9 | 0.00 | 0.00 | 0.00 | 16 | 1008.0 |
| 20260502212504 | 76 | 360 | 6.1 | 11.3 | 0.00 | 0.00 | 0.00 | 15 | 1008.0 |
| 20260502212004 | 76 | 360 | 6.1 | 10.4 | 0.00 | 0.00 | 0.00 | 15 | 1008.1 |
| 20260502211503 | 75 | 360 | 2.6 | 9.6 | 0.00 | 0.00 | 0.00 | 15 | 1008.1 |
| 20260502211002 | 75 | 360 | 3.5 | 9.6 | 0.00 | 0.00 | 0.00 | 15 | 1008.1 |
| 20260502210501 | 74 | 360 | 3.5 | 13.0 | 0.00 | 0.00 | 0.00 | 16 | 1008.3 |
| 20260502210001 | 75 | 360 | 5.2 | 13.0 | 0.00 | 0.00 | 0.00 | 15 | 1008.3 |
| 20260502205501 | 76 | 360 | 5.2 | 12.2 | 0.00 | 0.00 | 0.00 | 15 | 1008.4 |
| 20260502205001 | 77 | 360 | 4.3 | 10.4 | 0.00 | 0.00 | 0.00 | 14 | 1008.3 |
| 20260502204501 | 78 | 360 | 4.3 | 10.4 | 0.00 | 0.00 | 0.00 | 14 | 1008.5 |
| 20260502204103 | 78 | 360 | 4.3 | 10.4 | 0.00 | 0.00 | 0.00 | 14 | 1008.5 |
| 20260502203559 | 77 | 360 | 3.5 | 11.3 | 0.00 | 0.00 | 0.00 | 15 | 1008.5 |
| 20260502203112 | 77 | 360 | 3.5 | 11.3 | 0.00 | 0.00 | 0.00 | 15 | 1008.7 |
| 20260502202557 | 77 | 360 | 5.2 | 9.6 | 0.00 | 0.00 | 0.00 | 15 | 1008.6 |
| 20260502202101 | 75 | 360 | 2.6 | 10.4 | 0.00 | 0.00 | 0.00 | 16 | 1008.7 |
| 20260502201556 | 76 | 360 | 2.6 | 14.8 | 0.00 | 0.00 | 0.00 | 15 | 1008.8 |
| 20260502201056 | 77 | 360 | 7.0 | 11.3 | 0.00 | 0.00 | 0.00 | 15 | 1008.9 |
| 20260502200554 | 77 | 360 | 3.5 | 7.8 | 0.00 | 0.00 | 0.00 | 14 | 1008.9 |
| 20260502200054 | 76 | 360 | 3.5 | 8.7 | 0.00 | 0.00 | 0.00 | 15 | 1009.0 |
| 20260502195553 | 76 | 360 | 5.2 | 9.6 | 0.00 | 0.00 | 0.00 | 15 | 1009.1 |
| 20260502195053 | 76 | 360 | 3.5 | 9.6 | 0.00 | 0.00 | 0.00 | 15 | 1009.0 |
| 20260502194555 | 76 | 360 | 3.5 | 9.6 | 0.00 | 0.00 | 0.00 | 14 | 1009.1 |
| 20260502194051 | 75 | 360 | 2.6 | 8.7 | 0.00 | 0.00 | 0.00 | 15 | 1009.1 |
| 20260502193551 | 75 | 360 | 2.6 | 8.7 | 0.00 | 0.00 | 0.00 | 15 | 1009.1 |
| 20260502193051 | 75 | 360 | 2.6 | 11.3 | 0.00 | 0.00 | 0.00 | 15 | 1009.2 |
| 20260502192554 | 74 | 360 | 4.3 | 12.2 | 0.00 | 0.00 | 0.00 | 15 | 1009.2 |
| 20260502192049 | 73 | 360 | 3.5 | 10.4 | 0.00 | 0.00 | 0.00 | 15 | 1009.3 |
| 20260502191551 | 73 | 360 | 4.3 | 11.3 | 0.00 | 0.00 | 0.00 | 15 | 1009.3 |
| 20260502191052 | 74 | 360 | 6.1 | 11.3 | 0.00 | 0.00 | 0.00 | 15 | 1009.4 |
| 20260502190548 | 73 | 360 | 4.3 | 11.3 | 0.00 | 0.00 | 0.00 | 14 | 1009.4 |
| 20260502190059 | 73 | 360 | 7.0 | 12.2 | 0.00 | 0.00 | 0.00 | 14 | 1009.5 |
| 20260502185547 | 73 | 360 | 5.2 | 12.2 | 0.00 | 0.00 | 0.00 | 15 | 1009.5 |
| 20260502185047 | 73 | 360 | 5.2 | 10.4 | 0.00 | 0.00 | 0.00 | 14 | 1009.6 |
| 20260502184547 | 74 | 360 | 6.1 | 9.6 | 0.00 | 0.00 | 0.00 | 14 | 1009.7 |
| 20260502184047 | 74 | 360 | 3.5 | 11.3 | 0.00 | 0.00 | 0.00 | 14 | 1009.7 |
| 20260502183546 | 75 | 360 | 5.2 | 11.3 | 0.00 | 0.00 | 0.00 | 14 | 1009.8 |
| 20260502183056 | 75 | 360 | 2.6 | 8.7 | 0.00 | 0.00 | 0.00 | 14 | 1009.9 |
| 20260502182545 | 74 | 360 | 1.7 | 9.6 | 0.00 | 0.00 | 0.00 | 15 | 1009.9 |
| 20260502182047 | 75 | 360 | 3.5 | 9.6 | 0.00 | 0.00 | 0.00 | 15 | 1009.9 |
| 20260502181545 | 75 | 360 | 2.6 | 7.8 | 0.00 | 0.00 | 0.00 | 15 | 1010.0 |
| 20260502181046 | 74 | 360 | 1.7 | 7.8 | 0.00 | 0.00 | 0.00 | 15 | 1009.9 |
| 20260502180544 | 74 | 360 | 1.7 | 7.8 | 0.00 | 0.00 | 0.00 | 15 | 1010.0 |
| 20260502164031 | 68 | 360 | 0.9 | 3.5 | 0.00 | 0.00 | 0.00 | 15 | 1010.6 |
| 20260502163530 | 67 | 360 | 1.7 | 4.3 | 0.00 | 0.00 | 0.00 | 15 | 1010.5 |
| 20260502163048 | 66 | 360 | 1.7 | 4.3 | 0.00 | 0.00 | 0.00 | 16 | 1010.6 |
| 20260502162530 | 65 | 360 | 0.9 | 3.5 | 0.00 | 0.00 | 0.00 | 17 | 1010.6 |
| 20260502162030 | 64 | 360 | 0.0 | 2.6 | 0.00 | 0.00 | 0.00 | 17 | 1010.6 |
| 20260502161523 | 63 | 360 | 0.0 | 2.6 | 0.00 | 0.00 | 0.00 | 18 | 1010.6 |
| 20260502161027 | 62 | 360 | 0.0 | 3.5 | 0.00 | 0.00 | 0.00 | 18 | 1010.7 |
| 20260502160526 | 62 | 360 | 0.9 | 3.5 | 0.00 | 0.00 | 0.00 | 18 | 1010.7 |
| 20260502152014 | 58 | 67 | 0.0 | 0.9 | 0.00 | 0.00 | 0.00 | 20 | 1010.7 |
| 20260502151513 | 58 | 360 | 0.0 | 0.9 | 0.00 | 0.00 | 0.00 | 20 | 1010.6 |
| 20260502151013 | 57 | 83 | 0.0 | 0.9 | 0.00 | 0.00 | 0.00 | 21 | 1010.7 |
| 20260502150514 | 57 | 88 | 0.0 | 0.9 | 0.00 | 0.00 | 0.00 | 21 | 1010.7 |
| 20260502130505 | 52 | 360 | 0.0 | 1.7 | 0.00 | 0.00 | 0.00 | 19 | 1009.8 |
| 20260502123502 | 53 | 207 | 0.9 | 1.7 | 0.00 | 0.00 | 0.00 | 18 | 1009.7 |
| 20260502123002 | 53 | 207 | 0.0 | 2.6 | 0.00 | 0.00 | 0.00 | 18 | 1009.8 |
| 20260502122502 | 53 | 207 | 0.0 | 2.6 | 0.00 | 0.00 | 0.00 | 18 | 1009.8 |
| 20260502122002 | 52 | 217 | 1.7 | 2.6 | 0.00 | 0.00 | 0.00 | 18 | 1009.8 |
| 20260502121502 | 52 | 215 | 0.9 | 1.7 | 0.00 | 0.00 | 0.00 | 18 | 1009.7 |
| 20260502121002 | 52 | 360 | 0.0 | 1.7 | 0.00 | 0.00 | 0.00 | 18 | 1009.7 |
| 20260502120601 | 51 | 213 | 0.9 | 1.7 | 0.00 | 0.00 | 0.00 | 18 | 1009.7 |
| 20260502115500 | 51 | 196 | 0.9 | 2.6 | 0.00 | 0.00 | 0.00 | 18 | 1009.7 |
| 20260502115100 | 51 | 360 | 0.9 | 2.6 | 0.00 | 0.00 | 0.00 | 18 | 1009.7 |
| 20260502114604 | 51 | 193 | 0.9 | 2.6 | 0.00 | 0.00 | 0.00 | 18 | 1009.8 |
| 20260502114502 | 51 | 360 | 0.9 | 2.6 | 0.00 | 0.00 | 0.00 | 18 | 1009.8 |
| 20260502114100 | 51 | 360 | 0.0 | 2.6 | 0.00 | 0.00 | 0.00 | 18 | 1009.8 |
| 20260502113603 | 51 | 360 | 0.9 | 2.6 | 0.00 | 0.00 | 0.00 | 18 | 1009.7 |
| 20260502113100 | 51 | 360 | 0.9 | 1.7 | 0.00 | 0.00 | 0.00 | 18 | 1009.7 |
| 20260502112558 | 52 | 190 | 0.9 | 1.7 | 0.00 | 0.00 | 0.00 | 17 | 1009.8 |
| 20260502112058 | 52 | 360 | 0.0 | 1.7 | 0.00 | 0.00 | 0.00 | 17 | 1009.9 |
| 20260502111559 | 53 | 190 | 0.0 | 1.7 | 0.00 | 0.00 | 0.00 | 17 | 1010.0 |
| 20260502111100 | 52 | 187 | 0.0 | 2.6 | 0.00 | 0.00 | 0.00 | 17 | 1009.9 |
| 20260502110602 | 52 | 184 | 0.9 | 2.6 | 0.00 | 0.00 | 0.00 | 16 | 1010.0 |
| 20260502110104 | 52 | 184 | 0.0 | 0.9 | 0.00 | 0.00 | 0.00 | 18 | 1010.0 |
| 20260502105558 | 52 | 184 | 0.0 | 0.9 | 0.00 | 0.00 | 0.00 | 18 | 1009.9 |
| 20260502105059 | 52 | 360 | 0.0 | 0.9 | 0.00 | 0.00 | 0.00 | 19 | 1010.0 |
| 20260502104557 | 52 | 360 | 0.0 | 1.7 | 0.00 | 0.00 | 0.00 | 17 | 1010.0 |
| 20260502104056 | 53 | 360 | 0.0 | 1.7 | 0.00 | 0.00 | 0.00 | 18 | 1010.0 |
| 20260502103556 | 53 | 360 | 0.0 | 2.6 | 0.00 | 0.00 | 0.00 | 16 | 1010.0 |
| 20260502103056 | 53 | 202 | 0.9 | 2.6 | 0.00 | 0.00 | 0.00 | 16 | 1009.9 |
| 20260502102555 | 54 | 188 | 0.9 | 2.6 | 0.00 | 0.00 | 0.00 | 16 | 1009.9 |
| 20260502102055 | 53 | 187 | 0.0 | 4.3 | 0.00 | 0.00 | 0.00 | 17 | 1009.8 |
| 20260502101558 | 52 | 171 | 0.9 | 4.3 | 0.00 | 0.00 | 0.00 | 17 | 1009.8 |
| 20260502101057 | 52 | 213 | 0.0 | 1.7 | 0.00 | 0.00 | 0.00 | 17 | 1009.9 |
| 20260502100555 | 51 | 214 | 0.0 | 2.6 | 0.00 | 0.00 | 0.00 | 17 | 1009.9 |
| 20260502091049 | 52 | 225 | 0.9 | 1.7 | 0.00 | 0.00 | 0.00 | 18 | 1010.1 |
| 20260502090548 | 52 | 225 | 0.0 | 0.9 | 0.00 | 0.00 | 0.00 | 17 | 1010.2 |
| 20260502071033 | 57 | 360 | 0.0 | 1.7 | 0.00 | 0.00 | 0.00 | 16 | 1010.7 |
| 20260502070532 | 57 | 360 | 0.0 | 1.7 | 0.00 | 0.00 | 0.00 | 15 | 1010.6 |
| 20260502070045 | 58 | 210 | 0.0 | 1.7 | 0.00 | 0.00 | 0.00 | 15 | 1010.7 |
| 20260502065531 | 58 | 208 | 0.0 | 2.6 | 0.00 | 0.00 | 0.00 | 14 | 1010.7 |
| 20260502065030 | 58 | 360 | 0.9 | 2.6 | 0.00 | 0.00 | 0.00 | 14 | 1010.6 |
| 20260502064539 | 58 | 210 | 0.0 | 1.7 | 0.00 | 0.00 | 0.00 | 14 | 1010.5 |
| 20260502064030 | 58 | 360 | 0.0 | 1.7 | 0.00 | 0.00 | 0.00 | 14 | 1010.6 |
| 20260502063530 | 58 | 360 | 0.0 | 1.7 | 0.00 | 0.00 | 0.00 | 14 | 1010.7 |
| 20260502063030 | 58 | 360 | 0.0 | 1.7 | 0.00 | 0.00 | 0.00 | 14 | 1010.6 |
| 20260502062530 | 59 | 360 | 0.0 | 1.7 | 0.00 | 0.00 | 0.00 | 14 | 1010.7 |
| 20260502062031 | 59 | 360 | 0.9 | 2.6 | 0.00 | 0.00 | 0.00 | 14 | 1010.7 |
| 20260502061530 | 59 | 360 | 0.0 | 3.5 | 0.00 | 0.00 | 0.00 | 14 | 1010.7 |
| 20260502061028 | 59 | 360 | 1.7 | 3.5 | 0.00 | 0.00 | 0.00 | 14 | 1010.7 |
| 20260502060529 | 59 | 360 | 0.0 | 2.6 | 0.00 | 0.00 | 0.00 | 14 | 1010.8 |
| 20260502060030 | 59 | 360 | 0.9 | 2.6 | 0.00 | 0.00 | 0.00 | 13 | 1010.7 |
| 20260502055529 | 59 | 360 | 0.9 | 2.6 | 0.00 | 0.00 | 0.00 | 14 | 1010.7 |
| 20260502055029 | 59 | 360 | 0.9 | 2.6 | 0.00 | 0.00 | 0.00 | 13 | 1010.7 |
| 20260502054528 | 59 | 360 | 0.9 | 2.6 | 0.00 | 0.00 | 0.00 | 13 | 1010.7 |
| 20260502054027 | 59 | 360 | 1.7 | 2.6 | 0.00 | 0.00 | 0.00 | 13 | 1010.8 |
| 20260502053529 | 59 | 360 | 0.9 | 2.6 | 0.00 | 0.00 | 0.00 | 13 | 1010.8 |
| 20260502053027 | 59 | 360 | 0.9 | 2.6 | 0.00 | 0.00 | 0.00 | 13 | 1010.9 |
| 20260502052528 | 59 | 360 | 0.9 | 2.6 | 0.00 | 0.00 | 0.00 | 13 | 1010.9 |
| 20260502052028 | 59 | 360 | 0.9 | 2.6 | 0.00 | 0.00 | 0.00 | 13 | 1010.9 |
| 20260502051529 | 59 | 360 | 0.9 | 2.6 | 0.00 | 0.00 | 0.00 | 13 | 1010.9 |
| 20260502051027 | 60 | 360 | 0.9 | 3.5 | 0.00 | 0.00 | 0.00 | 13 | 1010.9 |
| 20260502050522 | 60 | 360 | 0.9 | 3.5 | 0.00 | 0.00 | 0.00 | 13 | 1010.9 |
| 20260502050021 | 60 | 360 | 1.7 | 3.5 | 0.00 | 0.00 | 0.00 | 13 | 1010.9 |
| 20260502045521 | 60 | 360 | 1.7 | 2.6 | 0.00 | 0.00 | 0.00 | 13 | 1010.9 |
| 20260502045024 | 60 | 360 | 0.9 | 3.5 | 0.00 | 0.00 | 0.00 | 12 | 1010.8 |
| 20260502044622 | 60 | 360 | 1.7 | 3.5 | 0.00 | 0.00 | 0.00 | 12 | 1010.7 |
| 20260502044020 | 60 | 360 | 0.9 | 2.6 | 0.00 | 0.00 | 0.00 | 12 | 1010.7 |
| 20260502043522 | 61 | 360 | 1.7 | 2.6 | 0.00 | 0.00 | 0.00 | 12 | 1010.7 |
| 20260502043020 | 61 | 360 | 0.9 | 2.6 | 0.00 | 0.00 | 0.00 | 12 | 1010.6 |
| 20260502042520 | 61 | 360 | 1.7 | 2.6 | 0.00 | 0.00 | 0.00 | 12 | 1010.6 |
| 20260502042023 | 61 | 360 | 0.9 | 1.7 | 0.00 | 0.00 | 0.00 | 12 | 1010.6 |
| 20260502041521 | 62 | 360 | 0.9 | 1.7 | 0.00 | 0.00 | 0.00 | 12 | 1010.6 |
| 20260502041022 | 62 | 360 | 0.9 | 1.7 | 0.00 | 0.00 | 0.00 | 12 | 1010.5 |
| 20260502040519 | 62 | 360 | 0.9 | 1.7 | 0.00 | 0.00 | 0.00 | 11 | 1010.5 |
| 20260502040019 | 62 | 360 | 0.0 | 1.7 | 0.00 | 0.00 | 0.00 | 11 | 1010.4 |
| 20260502035519 | 62 | 360 | 0.0 | 2.6 | 0.00 | 0.00 | 0.00 | 11 | 1010.3 |
| 20260502035019 | 62 | 360 | 0.9 | 2.6 | 0.00 | 0.00 | 0.00 | 11 | 1010.3 |
| 20260502034533 | 63 | 360 | 0.0 | 1.7 | 0.00 | 0.00 | 0.00 | 11 | 1010.2 |
| 20260502034022 | 63 | 360 | 0.0 | 0.9 | 0.00 | 0.00 | 0.00 | 11 | 1010.1 |
| 20260502033518 | 64 | 360 | 0.0 | 0.0 | 0.00 | 0.00 | 0.00 | 11 | 1010.1 |
| 20260502033017 | 65 | 360 | 0.0 | 0.0 | 0.00 | 0.00 | 0.00 | 11 | 1009.9 |
| 20260502032517 | 65 | 360 | 0.0 | 0.0 | 0.00 | 0.00 | 0.00 | 11 | 1009.9 |
| 20260502032018 | 65 | 360 | 0.0 | 0.9 | 0.00 | 0.00 | 0.00 | 11 | 1009.8 |
| 20260502031518 | 66 | 360 | 0.0 | 0.9 | 0.00 | 0.00 | 0.00 | 11 | 1009.8 |
| 20260502031017 | 67 | 360 | 0.0 | 0.9 | 0.00 | 0.00 | 0.00 | 11 | 1009.8 |
| 20260502030517 | 67 | 360 | 0.0 | 0.9 | 0.00 | 0.00 | 0.00 | 11 | 1009.8 |
| 20260502030017 | 67 | 360 | 0.0 | 1.7 | 0.00 | 0.00 | 0.00 | 10 | 1009.8 |
| 20260502025517 | 68 | 360 | 0.0 | 2.6 | 0.00 | 0.00 | 0.00 | 10 | 1009.8 |
| 20260502025016 | 68 | 360 | 0.0 | 3.5 | 0.00 | 0.00 | 0.00 | 10 | 1009.9 |
| 20260502024519 | 68 | 360 | 0.9 | 4.3 | 0.00 | 0.00 | 0.00 | 10 | 1009.9 |
| 20260502024016 | 69 | 360 | 0.9 | 4.3 | 0.00 | 0.00 | 0.00 | 10 | 1009.9 |
| 20260502023516 | 69 | 360 | 1.7 | 4.3 | 0.00 | 0.00 | 0.00 | 10 | 1009.8 |
| 20260502023016 | 69 | 360 | 0.9 | 3.5 | 0.00 | 0.00 | 0.00 | 10 | 1009.8 |
| 20260502022515 | 70 | 360 | 1.7 | 3.5 | 0.00 | 0.00 | 0.00 | 10 | 1009.8 |
| 20260502022015 | 70 | 360 | 0.9 | 4.3 | 0.00 | 0.00 | 0.00 | 11 | 1009.8 |
| 20260502021516 | 70 | 360 | 1.7 | 4.3 | 0.00 | 0.00 | 0.00 | 10 | 1009.8 |
| 20260502021015 | 70 | 360 | 1.7 | 4.3 | 0.00 | 0.00 | 0.00 | 10 | 1009.8 |
| 20260502020515 | 71 | 360 | 0.9 | 7.0 | 0.00 | 0.00 | 0.00 | 10 | 1009.8 |
| 20260502020014 | 71 | 360 | 1.7 | 7.0 | 0.00 | 0.00 | 0.00 | 10 | 1009.8 |
| 20260502015514 | 71 | 360 | 2.6 | 7.0 | 0.00 | 0.00 | 0.00 | 9 | 1009.8 |
| 20260502015013 | 72 | 360 | 3.5 | 7.8 | 0.00 | 0.00 | 0.00 | 9 | 1009.8 |
| 20260502014530 | 73 | 360 | 3.5 | 8.7 | 0.00 | 0.00 | 0.00 | 9 | 1009.8 |
| 20260502014014 | 73 | 360 | 1.7 | 7.0 | 0.00 | 0.00 | 0.00 | 9 | 1009.9 |
| 20260502013513 | 74 | 360 | 0.9 | 5.2 | 0.00 | 0.00 | 0.00 | 9 | 1009.9 |
| 20260502013012 | 74 | 360 | 2.6 | 7.0 | 0.00 | 0.00 | 0.00 | 9 | 1009.9 |
| 20260502012512 | 75 | 360 | 3.5 | 7.0 | 0.00 | 0.00 | 0.00 | 9 | 1010.0 |
| 20260502012012 | 76 | 360 | 2.6 | 7.0 | 0.00 | 0.00 | 0.00 | 9 | 1010.0 |
| 20260502011512 | 76 | 360 | 0.9 | 4.3 | 0.00 | 0.00 | 0.00 | 8 | 1009.9 |
| 20260502011011 | 76 | 360 | 1.7 | 5.2 | 0.00 | 0.00 | 0.00 | 8 | 1010.1 |
| 20260502010510 | 76 | 360 | 1.7 | 5.2 | 0.00 | 0.00 | 0.00 | 8 | 1010.1 |
| 20260502010010 | 77 | 360 | 1.7 | 7.0 | 0.00 | 0.00 | 0.00 | 8 | 1010.1 |
| 20260502005509 | 77 | 360 | 0.9 | 7.0 | 0.00 | 0.00 | 0.00 | 8 | 1010.1 |
| 20260502005010 | 76 | 360 | 0.0 | 10.4 | 0.00 | 0.00 | 0.00 | 8 | 1010.1 |
| 20260502004509 | 76 | 360 | 2.6 | 10.4 | 0.00 | 0.00 | 0.00 | 8 | 1010.2 |
| 20260502004009 | 77 | 360 | 1.7 | 9.6 | 0.00 | 0.00 | 0.00 | 8 | 1010.2 |
| 20260502003507 | 77 | 360 | 4.3 | 9.6 | 0.00 | 0.00 | 0.00 | 8 | 1010.2 |
| 20260502003011 | 77 | 360 | 3.5 | 8.7 | 0.00 | 0.00 | 0.00 | 8 | 1010.2 |
| 20260502002508 | 77 | 360 | 3.5 | 8.7 | 0.00 | 0.00 | 0.00 | 8 | 1010.2 |
| 20260502002008 | 77 | 360 | 5.2 | 8.7 | 0.00 | 0.00 | 0.00 | 8 | 1010.2 |
| 20260502001515 | 77 | 360 | 3.5 | 8.7 | 0.00 | 0.00 | 0.00 | 8 | 1010.3 |
| 20260502001006 | 77 | 360 | 2.6 | 10.4 | 0.00 | 0.00 | 0.00 | 8 | 1010.3 |
| 20260502000506 | 77 | 360 | 3.5 | 13.0 | 0.00 | 0.00 | 0.00 | 8 | 1010.4 |
| 20260502000017 | 79 | 360 | 5.2 | 13.0 | 0.00 | 0.00 | 0.00 | 8 | 1010.4 |
| 20260501235505 | 79 | 360 | 2.6 | 10.4 | 0.00 | 0.00 | 0.00 | 8 | 1010.4 |
| 20260501235004 | 80 | 360 | 3.5 | 9.6 | 0.00 | 0.00 | 0.00 | 8 | 1010.4 |
| 20260501234503 | 79 | 360 | 1.7 | 7.0 | 0.00 | 0.00 | 0.00 | 8 | 1010.5 |
| 20260501234003 | 79 | 360 | 2.6 | 7.0 | 0.00 | 0.00 | 0.00 | 8 | 1010.5 |
| 20260501233503 | 79 | 360 | 2.6 | 8.7 | 0.00 | 0.00 | 0.00 | 8 | 1010.5 |
| 20260501233003 | 79 | 360 | 0.9 | 10.4 | 0.00 | 0.00 | 0.00 | 8 | 1010.7 |
| 20260501232502 | 79 | 360 | 3.5 | 10.4 | 0.00 | 0.00 | 0.00 | 8 | 1010.7 |
| 20260501232004 | 79 | 360 | 5.2 | 10.4 | 0.00 | 0.00 | 0.00 | 8 | 1010.7 |
| 20260501231504 | 81 | 360 | 2.6 | 7.0 | 0.00 | 0.00 | 0.00 | 8 | 1010.7 |
| 20260501231100 | 80 | 360 | 1.7 | 7.0 | 0.00 | 0.00 | 0.00 | 8 | 1010.8 |
| 20260501230600 | 79 | 360 | 0.9 | 7.8 | 0.00 | 0.00 | 0.00 | 8 | 1010.8 |
| 20260501230105 | 79 | 360 | 2.6 | 9.6 | 0.00 | 0.00 | 0.00 | 8 | 1011.0 |
| 20260501225558 | 79 | 360 | 5.2 | 9.6 | 0.00 | 0.00 | 0.00 | 8 | 1011.0 |
| 20260501225057 | 78 | 360 | 1.7 | 8.7 | 0.00 | 0.00 | 0.00 | 8 | 1011.1 |